STARLINK-33889, 63829

Orbit data source: Space-Track

STARLINK-33889, 63829 is a payload satellite owned by SpaceX/Seattle (US) in LEO that was launched on Sun, 04 May 2025 UTC via an FALCON 9 launch vehicle from the Air Force Eastern Test Range (AFETR). Payload-class satellites include a variety of spacecraft equipped with specific instruments for various scientific and technological missions. These include communications satellites like Starlink; space stations such as the ISS; scientific satellites like the Hubble; Earth observation satellites from companies like Planet Labs, Umbra, and HawkEye 360; GPS; miniature CubeSats for education and research; and military/defense satellites.

Loading next visibility...
Identifier
63829, 2025-092AB
Orbit
LEO
Country
Flag of USUS
Related business
Manufacturer
SpaceX/Seattle
Mission
Operational Commercial Communications
Bus & Motor
STARLINK V2MO, Unknown motor
Mass
575 kg wet, ~530 kg dry
Launch date (UTC)
2025-05-04 (1 year ago)
Launch vehicle
FALCON 9
Launch site
Air Force Eastern Test Range (AFETR)
Object type
Payload
Rocket body
Debris
Shape & HBR
Box + 1 Pan, 17.7 m
Radar Cross Section
41.120 m², Large (>1 m²)

Expand to show TLE details & history
Last TLE update: 20 hours ago

TLE from 20 hours ago
0 STARLINK-33889
1 63829U 25092AB  26267.05129230  .00014579  00000-0  53810-3 0  9997
2 63829  42.9988 132.1155 0001346 272.7917  87.2780 15.27589420 78894
Epoch: 2026-09-24T01:13Z
TLE epoch observation values (Epoch: 2026-09-24T01:13:51.654Z)
Latitude
-0.00007°
Longitude
110.75659°
Altitude
482.752 km
Speed
7.626 km/s
True Right ascension
08h 48m 27s
True Declination
0° 00' 00"
Sunlit
Object was in daylight at epoch
Visualization orbit readout
Latitude
Unknown
Longitude
Unknown
Altitude
Unknown
Speed
Unknown
Apparent Right ascension
Unknown
Apparent Declination
Unknown
Sunlit
N/A
Visualization observer readout
Local Sidereal Time
14:16:33
Azimuth
Unknown
Elevation
Unknown
Doppler factor
Unknown
Orbital elements
Apogee altitude
485.89 km
Perigee altitude
484.042 km
Semi-major axis
6,863.103 km
Eccentricity
0.00013
Inclination
42.9988°
RAAN
132.1155°
Arg. of periapsis
272.7917°
True anomaly
87.29341°
Mean anomaly
87.278°
Eccentric anomaly
87.2857°
Mean motion
3.81735 °/min
Orbital period
94.31 mins
BSTAR
0.0005381
Loading maneuver chart data...
Computing Atmospheric mass density...
Loading historical data...
Loading historical data...
Loading historical data...
Loading historical data...
Loading historical data...
Loading historical data...
Loading historical data...

Documentation

Showing up to 5 results
|